Theta_e
318 319 320 321 321 321 322 322 323 324 325 325 325 326 326 326 326 325 325 325 325 325 326 324 324 324 324 324 325 325 325 314 311 306 304 306 320 324 325 326 336 336 334 321 319 319 314 315 315 316 312 311 309 308 308 312 310 307 301 295 294 293 296 298 301 300 304 303 303 303 305 303 304 305 308 310 307 305 305 307 313 321 320 320 321 323 324 324
318 318 318 319 320 321 321 322 322 323 323 324 325 325 325 325 326 325 325 325 325 325 326 325 324 325 325 324 325 325 320 312 308 307 307 315 320 323 326 327 330 334 330 318 316 315 314 313 314 316 309 308 310 307 311 307 312 303 296 296 296 295 300 303 303 304 305 303 305 305 305 303 305 305 307 306 305 304 305 305 314 316 318 321 321 322 323 323
317 317 317 318 319 319 320 321 321 322 322 323 324 325 325 326 325 325 325 325 325 325 325 325 325 325 324 325 324 325 314 307 305 300 305 322 326 326 324 324 327 333 323 316 318 317 315 315 315 314 310 306 306 305 308 305 310 303 300 295 296 300 302 304 307 307 307 308 306 306 306 305 307 307 308 306 304 304 305 302 309 310 315 316 318 320 321 322
316 317 317 317 317 318 319 320 320 321 321 322 323 324 325 325 325 325 325 325 325 325 324 324 325 325 325 325 325 316 310 303 296 302 310 326 335 333 331 328 326 330 322 321 319 318 318 317 315 314 309 305 303 307 304 304 306 303 302 297 299 301 302 305 306 306 307 308 307 307 306 306 308 307 308 304 305 303 303 305 309 308 316 318 319 319 320 320
316 316 316 317 317 317 318 319 319 320 320 320 322 323 324 325 325 325 325 325 325 325 324 324 324 325 325 325 324 314 309 289 292 311 317 331 333 334 334 333 330 323 321 319 318 316 315 314 313 310 307 301 304 304 302 303 305 304 302 302 301 302 303 306 306 306 306 306 305 304 306 306 309 308 305 304 302 300 304 308 307 310 319 319 318 319 319 319
315 315 316 316 316 317 317 318 318 319 320 320 321 321 323 324 325 325 325 325 325 325 325 324 324 323 326 325 315 311 300 282 304 313 329 328 332 334 335 335 333 323 320 317 314 313 312 311 311 305 304 303 302 301 301 303 307 299 300 301 302 304 304 303 306 305 305 305 304 305 307 308 306 307 305 305 304 305 306 309 307 309 321 322 322 320 319 319
314 315 315 315 315 316 317 317 317 318 319 319 320 321 322 323 322 325 325 325 325 325 325 324 323 323 325 324 314 309 301 302 308 313 327 330 334 333 334 334 333 319 316 313 312 310 308 308 308 303 302 302 301 301 303 305 305 301 299 299 302 303 304 305 305 305 303 303 303 306 307 307 305 304 306 305 306 306 306 308 308 314 321 322 320 320 320 320
313 314 314 314 315 315 316 316 317 317 318 318 319 320 321 321 322 323 325 325 325 325 325 324 323 322 322 312 305 299 299 297 305 314 329 327 327 329 327 322 319 316 314 311 310 308 307 307 306 305 302 302 301 304 305 305 304 301 300 300 302 302 302 303 303 303 303 302 303 305 305 305 305 305 305 306 307 308 308 308 308 316 319 320 320 319 320 320
313 313 313 314 314 314 314 316 316 316 317 318 318 319 320 320 321 322 324 325 325 324 324 324 323 322 323 310 301 296 297 306 311 314 313 312 315 318 321 320 317 314 310 310 310 310 308 305 306 307 301 302 305 305 302 303 299 302 302 301 302 303 304 303 303 302 303 305 304 304 302 303 304 306 305 307 308 309 309 309 309 314 317 319 319 320 319 319
312 312 313 313 313 314 314 315 315 315 316 317 318 319 320 320 322 322 323 324 325 324 324 324 322 322 317 309 300 292 301 311 313 312 311 310 310 311 312 319 316 312 309 308 308 308 307 304 309 308 306 303 304 301 303 302 299 302 302 302 302 302 302 302 301 303 303 303 303 302 300 302 303 305 301 306 309 310 309 309 310 310 314 317 319 319 320 319
312 311 311 312 313 313 314 314 315 315 315 316 317 318 319 320 321 322 323 323 325 324 323 323 323 320 312 309 299 293 309 311 309 310 311 311 310 309 308 318 317 313 310 307 308 308 309 308 308 309 306 301 302 300 300 301 304 302 301 300 300 300 300 300 300 301 301 303 302 302 301 301 301 303 304 306 306 307 308 308 308 307 307 312 316 318 320 320
311 311 311 311 312 312 313 314 314 315 315 316 316 317 317 318 320 321 322 323 322 322 323 323 321 318 315 306 299 298 310 311 312 312 315 312 309 309 311 321 319 316 312 307 307 307 310 310 311 308 297 305 298 301 300 301 302 300 300 299 297 298 299 299 299 300 301 300 303 303 300 300 300 300 305 306 307 307 307 307 307 307 308 307 308 312 315 319
310 311 310 311 311 312 312 313 314 314 314 315 315 316 316 318 319 320 321 321 322 322 322 323 321 317 311 301 304 309 311 311 311 312 312 315 315 313 315 321 320 317 315 310 308 309 311 312 311 307 305 303 300 294 300 306 302 301 300 297 296 297 296 299 299 300 300 301 302 303 292 295 300 303 304 305 306 306 306 307 308 308 309 308 307 307 308 312
310 310 310 311 310 310 312 312 313 313 314 314 314 315 316 316 318 319 319 320 321 322 322 322 319 315 309 303 310 312 313 312 312 310 309 315 314 312 313 319 320 319 316 314 312 313 315 313 311 308 310 306 302 308 303 299 300 296 296 297 291 291 289 297 300 298 299 300 301 302 293 294 298 300 302 304 306 306 306 307 308 308 309 309 307 307 308 308
310 310 310 310 310 310 311 312 312 313 314 314 313 315 315 316 317 318 318 318 320 321 321 321 318 311 304 306 313 314 319 314 308 308 311 310 313 310 309 312 317 319 318 317 316 315 315 313 311 307 302 307 308 303 294 293 294 294 292 289 289 291 288 294 298 298 298 299 302 300 293 295 299 301 303 304 304 305 305 307 307 307 308 308 308 308 309 311
309 310 310 309 309 310 310 311 311 312 313 313 313 314 316 315 316 317 318 317 320 321 320 312 312 310 304 299 307 319 312 305 305 309 310 312 311 311 313 309 313 317 319 316 319 317 314 313 305 303 304 304 300 292 289 290 289 290 290 283 285 288 291 293 298 298 300 299 298 299 291 291 294 298 303 304 304 304 304 305 305 305 305 306 307 308 309 310
308 309 309 309 309 309 310 311 311 311 312 313 313 313 315 315 315 315 317 317 316 317 313 307 312 311 295 308 312 305 303 306 310 308 309 311 310 311 312 311 309 313 315 315 313 313 310 309 307 305 303 296 294 294 289 288 284 286 288 288 286 289 288 290 293 295 298 298 295 297 295 296 298 298 299 300 301 300 300 302 303 304 304 305 306 307 308 309
307 308 309 309 309 309 309 310 311 311 311 312 311 311 311 313 314 313 312 313 312 312 312 312 310 304 299 306 299 300 306 306 307 308 308 309 310 313 312 308 308 311 312 309 311 308 307 304 304 296 297 296 294 296 289 284 288 288 288 286 288 289 290 290 289 293 296 296 295 295 294 295 298 300 301 301 301 300 301 302 302 302 302 303 303 305 306 307
307 307 309 309 308 309 309 310 310 310 310 312 312 312 312 313 310 309 305 306 302 298 295 297 299 289 287 300 306 305 304 308 310 308 305 308 310 312 311 311 311 309 303 303 302 308 308 305 304 297 294 295 295 295 293 289 292 291 291 290 289 288 289 290 294 296 297 294 291 292 292 294 296 298 301 301 301 299 301 301 300 300 300 300 301 302 304 306
306 306 308 309 309 308 308 310 310 310 310 308 308 306 305 299 297 296 303 302 299 299 300 302 303 303 297 299 303 307 311 312 305 306 306 309 308 308 308 308 306 306 303 299 302 306 308 298 295 292 294 295 297 297 297 291 294 292 291 289 288 289 288 291 293 295 297 293 293 293 292 293 294 296 299 301 301 300 299 300 301 301 302 302 301 301 302 304
306 306 307 308 308 308 308 309 310 310 310 307 304 300 292 294 289 287 296 299 302 303 302 303 304 301 300 303 304 304 301 302 306 304 306 311 309 307 302 305 302 299 300 300 300 305 305 296 295 297 297 296 296 297 296 293 291 291 290 288 288 288 288 290 292 295 297 293 290 292 292 292 293 295 297 299 297 299 300 301 302 303 303 303 302 303 302 303
306 306 306 307 308 308 308 308 310 310 310 306 303 297 299 300 301 304 299 290 297 301 302 302 304 303 306 306 308 306 304 299 300 303 309 310 306 300 298 302 300 296 300 298 299 298 296 294 297 301 300 298 297 297 296 294 292 289 288 286 285 287 289 291 293 294 295 293 290 291 291 293 294 296 297 298 298 300 302 303 303 303 302 302 303 303 304 304
306 306 306 307 307 308 308 309 309 309 305 302 299 299 299 303 303 304 300 294 292 298 299 300 298 300 303 306 307 307 300 297 295 301 304 307 302 300 300 299 298 298 298 298 293 294 290 295 300 302 301 298 297 297 296 294 293 290 287 285 286 287 288 283 288 291 294 293 287 288 291 293 294 295 296 298 299 299 301 302 302 302 302 302 303 304 304 304
306 306 306 306 307 307 308 308 308 306 303 302 301 300 304 303 302 303 297 287 287 293 297 299 300 300 301 300 307 304 300 298 298 298 307 305 300 301 300 298 297 296 294 297 294 293 291 295 302 301 300 299 296 296 295 293 291 292 290 288 287 287 289 289 287 291 293 294 292 290 290 291 293 292 293 295 297 297 298 298 298 298 300 301 301 301 302 303
305 305 306 307 307 307 307 307 301 300 303 302 300 304 304 303 304 304 295 288 289 287 297 298 301 300 302 307 307 301 302 302 301 304 306 305 301 299 297 299 297 292 294 296 295 292 292 295 301 298 297 298 296 294 295 294 291 292 293 292 291 289 289 290 291 291 286 287 291 290 282 284 288 292 293 296 295 295 295 297 297 298 298 298 299 301 302 302
305 305 306 307 307 307 308 298 298 301 300 297 300 305 305 303 303 304 296 281 277 287 295 286 302 294 307 300 302 302 304 294 304 303 306 306 308 301 299 294 297 290 293 293 293 293 292 295 297 296 296 296 295 294 296 297 292 291 292 296 293 292 291 290 290 289 282 282 287 291 284 280 285 287 290 291 292 294 294 294 296 298 299 299 300 301 302 302
305 305 306 306 307 307 297 291 302 301 294 296 303 305 305 303 304 301 289 278 276 289 286 294 295 292 303 300 302 302 284 289 303 302 304 307 302 305 296 293 294 291 294 293 289 287 292 292 293 295 295 294 293 291 294 296 293 289 293 295 295 293 291 291 291 290 285 286 289 290 287 281 283 287 288 289 291 291 293 295 296 298 299 299 300 302 302 303
305 305 305 306 306 305 297 303 299 295 296 302 304 304 305 303 304 300 286 271 270 294 284 293 293 302 298 302 302 296 296 303 294 298 305 306 306 300 297 293 292 291 293 293 282 291 292 289 293 292 293 292 291 294 296 296 294 290 292 297 294 295 294 292 291 290 288 287 285 289 289 284 284 287 292 292 290 290 292 294 296 298 299 300 301 302 303 303
305 305 305 305 306 307 304 300 299 295 300 304 305 305 305 303 301 289 279 270 288 286 303 291 303 297 296 301 296 297 297 300 293 301 304 304 306 300 293 295 294 293 293 293 287 288 289 294 294 295 293 291 294 296 296 297 293 292 294 296 294 295 294 294 290 289 285 286 283 286 289 283 284 285 287 289 289 290 292 294 296 297 299 300 301 302 303 304
305 305 305 305 304 302 299 302 299 301 304 304 304 305 304 300 291 280 274 266 289 277 289 294 293 289 297 292 293 295 292 296 297 300 301 298 300 301 298 299 294 291 289 293 291 291 289 294 298 295 292 294 294 293 295 296 297 293 294 292 290 289 288 284 285 286 286 283 286 289 289 287 281 285 288 288 288 291 293 294 296 297 299 300 301 302 303 303
305 305 304 305 298 300 300 295 299 303 303 303 304 301 298 292 281 274 270 275 292 284 292 286 287 296 290 289 287 293 293 294 294 297 293 298 295 297 296 293 294 288 287 288 288 290 289 290 292 290 296 292 292 290 292 295 295 294 289 287 289 286 286 286 284 285 283 281 287 291 290 290 281 285 288 292 290 295 295 295 295 297 298 299 300 300 301 302
306 305 305 303 301 303 294 293 300 303 302 302 301 296 290 277 281 272 272 290 272 280 283 282 290 290 290 292 290 290 289 292 294 294 291 291 289 290 291 287 290 281 281 283 283 287 284 285 286 289 294 294 289 289 288 292 293 292 288 290 286 277 284 278 284 280 281 280 282 290 290 285 285 290 289 289 291 292 295 297 297 297 297 297 298 298 299 300
305 305 305 304 303 299 300 302 304 303 302 303 297 294 282 275 269 277 280 281 272 280 282 290 287 289 289 289 287 291 293 287 294 292 294 293 290 291 294 292 292 288 279 285 283 283 282 287 288 287 291 294 292 286 285 286 290 290 288 285 283 278 278 276 280 281 281 283 283 285 287 284 288 292 296 295 296 296 296 295 295 296 297 297 298 298 299 299
305 306 302 301 301 301 301 302 303 303 300 300 292 285 281 272 272 286 280 280 274 285 287 285 289 289 289 285 287 291 285 291 292 290 293 288 288 286 289 292 293 289 287 286 282 282 277 278 284 288 284 292 292 290 290 287 290 290 291 289 285 283 276 274 277 275 277 276 279 283 280 276 282 283 289 295 299 300 300 301 300 299 299 300 300 299 299 300
305 303 301 300 301 301 301 302 302 302 300 294 287 281 273 272 279 278 278 281 280 283 284 289 287 286 284 287 289 291 290 286 292 290 290 288 284 286 286 289 292 292 288 283 285 283 281 282 284 292 290 294 290 293 293 290 288 290 290 291 286 283 284 277 274 275 275 272 273 275 280 281 286 289 289 290 291 293 296 298 298 298 297 296 297 299 299 300
303 299 300 298 298 300 301 302 302 301 296 290 281 276 274 279 276 282 277 286 284 282 280 287 286 283 283 285 288 287 293 286 290 290 287 289 288 287 291 291 291 292 288 284 286 281 283 280 284 289 292 291 293 293 291 294 281 287 288 284 287 289 284 276 278 278 274 271 273 276 280 283 287 292 294 293 291 291 291 293 294 294 293 293 295 295 295 296
297 299 293 297 298 301 301 302 302 299 295 287 279 275 281 282 283 283 287 285 284 285 283 278 280 282 281 280 284 285 287 288 288 288 283 289 286 289 290 291 294 292 292 290 285 286 282 281 286 286 286 291 295 295 293 295 290 289 284 288 289 288 286 285 275 275 272 270 272 282 279 281 281 279 287 291 292 289 290 291 291 292 294 296 296 296 297 298
297 296 296 296 299 301 302 302 300 297 291 283 277 281 284 280 284 284 286 285 285 285 281 282 282 287 282 283 282 285 287 284 284 287 283 288 281 294 290 290 293 293 293 294 286 282 288 276 279 286 288 290 292 294 289 294 294 291 288 294 288 280 281 283 278 275 272 272 270 277 280 281 282 283 284 287 289 289 291 292 292 293 294 295 296 297 297 297
296 294 288 295 301 301 301 302 298 292 286 279 278 279 283 281 286 282 286 287 287 284 282 281 278 285 286 283 284 286 287 282 287 285 283 286 281 290 290 292 290 294 294 292 287 282 286 277 275 284 286 288 291 292 282 287 290 289 292 290 287 289 284 282 283 283 282 274 274 270 279 278 285 284 288 287 286 288 289 291 292 293 294 294 294 295 297 296
292 287 286 297 301 301 301 299 292 289 282 276 280 280 286 282 285 286 288 286 282 284 281 283 282 279 284 284 286 283 286 286 286 285 286 288 286 293 290 294 290 291 294 293 289 288 282 283 275 279 285 288 282 287 286 288 285 286 288 285 284 282 285 283 284 283 278 275 277 273 272 276 285 288 290 290 291 289 291 292 292 293 293 293 293 294 296 297
295 288 288 299 300 301 300 292 285 281 280 284 284 282 282 281 285 286 288 289 284 286 284 284 283 280 280 282 282 286 285 286 286 285 286 286 287 282 291 292 292 291 293 291 289 286 280 282 279 278 278 281 282 291 290 290 290 289 289 286 287 285 281 278 276 286 280 279 272 275 273 278 282 290 292 292 292 292 291 293 293 292 293 292 292 292 292 294
288 281 286 298 300 300 293 283 283 286 283 281 280 283 281 289 283 284 286 288 286 283 284 284 283 282 281 282 284 285 284 284 286 285 286 284 288 288 291 295 294 294 291 286 287 290 286 280 281 277 275 282 285 289 288 288 288 290 291 287 290 288 287 282 276 279 279 281 283 274 273 276 285 288 290 290 291 293 292 292 292 292 290 289 290 291 291 292
286 285 296 299 300 298 289 281 285 282 281 284 287 285 287 285 283 285 285 286 283 285 282 282 282 282 282 284 285 282 284 283 285 284 286 287 287 291 292 294 294 293 293 290 290 290 291 278 278 276 278 280 285 281 283 285 287 282 287 289 289 286 287 286 283 280 276 278 282 277 277 280 289 287 290 290 290 291 290 288 290 290 289 289 290 290 292 294
287 287 290 298 300 296 286 278 277 280 282 284 284 283 286 285 284 282 283 285 284 283 283 282 283 286 282 285 285 283 287 279 284 286 285 287 286 293 290 293 294 291 291 288 287 291 284 277 283 276 274 277 281 282 283 284 285 285 286 288 288 288 288 280 276 275 275 279 283 279 275 280 287 285 287 287 288 289 290 289 286 288 289 289 290 291 292 292
287 289 287 293 298 293 282 284 282 281 281 280 281 280 281 282 284 285 285 284 286 285 283 282 284 284 283 283 283 284 286 285 283 287 287 286 287 290 291 293 294 291 294 294 294 294 287 284 283 276 273 272 272 273 276 280 282 282 282 287 287 286 283 281 281 277 278 277 281 278 278 285 286 282 286 286 286 288 288 288 287 287 288 289 289 291 292 292
285 280 285 287 292 289 287 289 286 283 281 280 279 281 282 280 283 286 287 285 287 286 285 285 286 286 282 282 280 279 279 284 284 278 283 281 285 287 291 293 293 292 294 295 293 292 281 285 285 283 281 279 281 284 287 287 283 280 280 285 285 287 287 287 284 282 278 279 280 282 283 283 284 285 286 285 285 288 290 287 287 288 287 287 287 289 290 290
286 283 283 281 286 286 284 286 284 284 281 283 278 281 279 280 282 282 287 282 286 286 285 285 282 283 283 282 280 281 281 282 283 281 281 281 282 285 288 291 293 294 295 294 293 290 280 282 284 284 284 284 286 286 287 288 284 284 284 284 286 286 286 284 282 280 285 281 277 282 283 281 284 286 287 285 286 288 289 287 287 286 286 287 288 288 290 287
282 284 286 287 283 279 281 281 284 283 284 283 280 283 280 280 280 279 283 286 286 287 283 283 284 285 284 283 283 277 279 279 282 281 285 284 285 286 286 289 290 293 293 291 293 290 282 282 285 285 284 285 285 284 285 287 286 286 286 285 284 285 285 283 283 285 285 280 278 283 284 282 284 287 288 288 288 288 288 288 288 288 287 286 287 286 286 287
286 284 285 286 283 285 284 285 284 283 282 282 282 281 279 280 279 282 283 283 285 284 285 279 281 283 283 285 284 280 281 276 278 282 282 281 284 285 282 285 289 292 291 289 288 288 286 283 285 285 283 284 284 282 285 286 285 286 285 285 286 285 284 285 285 286 285 283 284 284 284 283 286 287 289 290 288 288 287 286 287 287 288 285 285 285 286 286
283 283 283 285 285 284 285 285 284 283 280 284 279 280 281 280 279 281 284 283 280 282 286 282 283 284 284 284 284 281 282 283 283 280 284 284 283 285 284 286 286 288 289 287 288 288 286 282 287 284 282 282 284 282 281 284 285 283 285 286 286 285 284 285 285 285 285 284 285 284 283 283 287 290 290 288 287 286 287 287 290 290 286 285 285 285 286 286
291 290 286 285 283 284 285 285 283 282 280 282 280 281 281 281 280 283 282 286 284 282 284 282 284 284 284 284 283 283 286 285 285 285 287 287 283 288 285 283 290 282 285 286 287 285 287 284 287 284 280 279 283 283 281 279 281 282 283 284 284 283 281 283 283 286 284 283 284 284 282 283 289 291 290 286 286 287 288 288 288 287 287 285 285 285 285 285
293 293 291 287 283 287 284 286 284 282 278 282 282 282 282 282 283 283 280 285 286 287 286 285 285 284 283 282 282 285 288 288 288 288 287 290 291 289 290 290 290 287 285 285 287 285 285 284 282 280 278 279 283 284 282 277 275 278 279 282 284 285 286 287 287 288 287 287 284 281 283 289 290 288 289 286 287 288 288 288 287 288 287 287 287 285 285 285
Wind_Speed
16 17 16 14 14 13 13 12 12 11 11 10 9 8 9 10 10 11 11 11 10 9 8 8 7 7 7 7 8 8 9 3 6 4 3 10 7 8 12 9 4 3 6 4 3 1 3 3 3 7 5 2 2 0 2 1 1 2 2 4 1 4 3 3 2 2 2 0 3 3 1 3 0 1 0 1 4 2 2 4 2 5 6 2 1 5 10 10
17 17 17 17 15 14 14 13 12 12 11 11 10 9 9 10 10 10 11 11 11 11 8 8 7 7 6 7 6 7 5 3 7 8 13 8 6 10 11 11 10 11 5 3 2 2 2 1 2 5 2 1 1 2 0 2 1 3 1 3 7 5 6 3 3 1 1 3 4 2 2 1 0 1 1 1 2 3 1 2 3 4 6 6 6 7 12 10
17 17 17 17 17 16 15 14 13 13 13 12 11 10 9 9 9 9 9 11 9 9 10 8 7 7 7 7 7 4 3 3 4 9 10 9 16 17 14 15 11 7 3 3 0 1 1 0 3 1 1 2 2 3 1 3 2 3 5 5 6 6 4 4 2 1 1 0 3 3 1 2 2 1 0 1 0 1 1 2 0 2 0 2 3 5 7 8
17 17 17 17 17 17 16 15 15 14 13 13 12 11 10 9 9 9 8 9 9 9 10 10 9 7 5 5 4 1 2 2 3 4 4 9 6 9 15 16 14 7 1 1 1 0 0 1 1 0 0 2 2 1 2 3 2 2 2 5 5 4 1 6 2 0 3 0 1 1 1 2 3 2 0 2 1 1 2 4 5 6 8 7 6 6 6 8
17 18 17 17 17 17 17 17 16 15 14 14 13 13 11 10 9 10 9 9 9 9 9 11 9 8 5 3 2 1 0 3 3 1 5 6 6 7 8 12 13 5 4 1 1 1 1 1 1 2 1 3 0 1 2 2 1 2 6 4 5 1 2 7 3 5 2 1 4 3 5 2 1 1 1 3 2 4 4 2 5 6 11 12 10 8 6 8
18 18 17 17 17 17 17 17 17 16 15 15 14 13 12 11 10 10 10 8 9 9 9 8 10 9 5 3 1 1 0 3 1 2 5 5 8 8 8 6 11 7 4 1 1 1 1 2 2 1 0 1 5 5 2 2 1 3 2 2 4 3 4 2 4 4 2 3 4 1 4 1 0 2 2 3 5 2 4 2 5 4 12 14 12 11 9 9
18 19 18 17 18 17 17 17 17 17 16 16 15 14 13 12 11 10 10 9 9 9 8 8 9 10 6 5 0 1 2 6 2 8 4 4 6 6 7 1 9 6 5 3 1 1 2 2 2 2 3 2 3 3 4 0 1 1 4 1 3 5 6 5 5 7 1 7 3 3 3 4 3 5 1 3 4 6 4 3 4 4 6 9 11 12 15 15
19 18 18 18 17 17 17 17 17 17 16 16 15 15 14 14 12 11 10 10 10 10 8 9 8 9 5 2 0 1 0 7 10 6 4 3 8 8 9 7 5 5 6 6 4 3 2 4 4 2 1 7 2 5 1 1 1 2 3 3 3 2 4 5 5 6 5 4 4 2 2 5 5 5 1 5 7 6 6 4 1 5 7 9 10 13 12 12
19 19 18 17 18 17 17 17 17 17 16 16 16 15 14 15 14 12 11 10 11 10 11 9 11 10 6 2 2 1 7 6 4 3 4 6 3 7 6 1 2 4 3 4 5 5 4 5 3 3 4 2 1 0 2 2 6 4 7 3 2 2 3 4 4 6 8 6 3 1 4 5 8 3 4 8 7 7 5 2 4 5 7 8 10 12 12 12
19 19 19 18 18 17 18 17 17 17 17 17 16 15 14 15 13 12 10 11 10 11 12 10 12 11 6 3 2 5 6 6 3 6 7 9 7 3 5 1 3 3 3 3 3 5 4 3 5 3 1 1 2 2 1 3 5 0 3 2 4 6 4 4 4 5 5 3 3 3 5 5 5 4 9 2 8 6 5 6 5 5 7 9 9 9 10 12
18 19 19 18 18 18 19 18 17 18 18 17 16 15 15 15 13 12 10 10 11 12 12 12 12 9 7 5 7 11 3 1 3 1 6 7 5 1 3 3 4 3 3 2 5 3 4 2 2 1 1 4 3 3 1 3 1 5 4 3 4 3 3 4 3 5 2 5 1 1 6 5 3 3 12 4 5 4 6 7 6 5 5 7 9 9 9 10
18 19 19 19 17 18 18 18 19 17 18 17 17 17 16 15 13 11 10 9 12 13 12 11 13 5 5 7 11 10 4 2 1 2 3 2 4 7 6 6 6 6 6 4 4 3 4 3 0 1 3 1 2 0 2 1 1 2 4 6 5 4 4 1 4 5 3 4 4 1 5 10 3 9 7 6 5 3 5 7 7 7 6 5 7 9 7 11
18 18 18 18 18 17 19 19 18 18 18 18 18 17 16 14 13 12 11 11 10 14 13 12 9 6 7 13 12 11 10 4 3 5 6 1 2 3 6 5 7 6 6 4 2 4 2 3 3 2 2 1 2 3 1 0 1 0 1 1 4 6 8 6 2 1 3 3 2 2 8 6 13 12 9 5 5 4 5 8 8 8 8 7 5 6 8 9
16 18 19 18 18 19 18 18 19 18 18 18 18 17 17 15 14 13 13 13 8 12 13 13 7 7 8 6 2 9 18 9 4 7 6 2 2 1 0 2 5 4 3 4 2 3 2 1 3 3 0 1 1 2 1 2 2 5 3 2 5 2 6 2 4 4 5 3 4 3 11 7 6 6 7 5 5 7 9 11 10 9 9 7 5 5 6 8
17 17 17 18 17 18 17 17 18 18 17 17 18 16 15 16 14 13 14 13 13 10 13 10 6 3 8 5 2 8 13 8 7 8 4 0 0 2 3 2 4 3 3 5 1 2 3 3 2 0 2 1 0 1 2 2 3 1 3 6 1 7 4 4 4 5 8 3 5 3 11 11 13 9 9 9 5 6 9 11 10 8 7 9 7 7 9 11
19 18 17 18 17 18 17 16 17 19 17 17 18 14 12 14 14 13 13 11 9 10 3 7 8 8 6 9 3 3 4 8 14 15 7 3 2 2 3 5 1 2 2 1 2 2 2 2 1 3 1 1 2 3 2 1 2 3 4 2 2 3 6 5 6 6 8 4 3 10 9 2 6 7 10 11 10 9 9 10 9 8 8 8 8 8 8 9
19 17 17 16 16 17 16 15 16 20 16 14 15 17 13 10 13 14 12 12 6 4 5 3 6 6 8 0 3 3 5 6 1 5 4 5 4 1 4 3 2 2 3 3 2 2 3 2 0 0 1 2 3 4 3 3 2 3 0 5 5 6 3 6 5 3 5 6 6 5 9 11 13 11 6 6 5 6 6 9 10 8 7 8 8 8 9 9
18 18 17 16 17 17 16 14 15 19 17 14 15 11 7 6 7 8 9 7 2 2 3 5 1 4 12 3 5 8 2 3 7 5 6 3 7 3 3 3 2 5 3 2 2 4 1 1 1 5 0 3 3 7 10 12 12 10 6 5 5 3 5 6 3 3 2 2 8 7 8 10 13 14 12 8 5 4 8 10 10 10 9 9 7 7 8 9
20 18 17 16 15 17 17 13 14 16 18 13 11 13 5 5 4 1 3 4 2 3 5 9 10 14 5 7 10 4 4 6 4 6 5 6 4 3 2 2 5 9 4 5 2 6 1 2 3 2 10 9 11 12 14 6 10 15 13 9 6 8 7 8 6 5 2 5 5 8 10 10 13 15 17 11 7 5 8 7 6 7 6 5 6 7 7 8
20 20 18 16 16 15 15 13 14 16 17 10 5 2 1 5 3 4 6 7 12 14 3 1 16 2 5 3 5 2 5 8 6 6 5 4 7 5 4 3 2 3 5 9 5 8 4 10 13 14 15 14 14 13 10 2 8 3 1 3 5 8 5 3 4 5 4 4 11 12 11 11 13 12 16 13 11 9 7 7 8 8 8 8 5 5 8 8
17 20 19 17 17 16 16 15 16 16 20 6 5 5 6 9 9 10 8 6 9 12 13 6 9 17 8 3 4 8 7 8 8 7 10 4 4 11 5 6 7 10 8 4 7 1 6 12 15 17 10 9 9 6 4 4 1 6 6 6 8 6 9 4 5 4 5 4 4 4 8 11 12 11 13 12 5 10 12 13 13 12 10 7 7 9 9 10
18 19 20 18 17 17 16 15 13 15 15 7 9 9 3 7 2 1 2 6 10 13 13 16 3 8 1 4 2 2 2 3 8 5 3 8 5 12 3 7 9 13 7 3 3 7 12 18 17 13 6 4 6 7 7 8 8 4 6 5 4 7 2 4 6 4 3 2 9 7 12 12 10 9 9 11 9 8 11 13 14 12 10 8 8 8 10 9
19 19 20 19 17 17 17 16 14 14 7 8 9 12 8 1 1 1 4 1 7 8 14 14 14 10 8 2 1 3 6 7 12 10 7 7 6 10 7 8 10 6 7 9 13 12 14 16 10 7 6 7 5 8 9 8 6 8 5 4 9 3 6 5 5 5 4 6 3 1 9 11 9 9 11 11 8 6 10 10 9 7 9 10 10 11 11 11
18 18 18 18 16 16 17 17 17 10 8 9 9 12 4 2 3 4 1 4 3 5 13 15 13 11 10 8 4 5 11 5 6 12 7 11 14 8 6 11 13 9 13 15 15 14 16 1 9 9 9 10 10 9 10 9 10 8 9 7 3 4 5 5 4 2 4 6 3 3 9 13 8 9 7 8 10 7 6 5 5 5 6 7 6 6 7 11
19 18 18 16 15 15 17 15 10 5 4 10 12 9 4 1 3 2 1 2 4 4 4 8 7 6 8 3 2 9 6 2 11 9 11 14 10 6 8 4 6 13 14 16 11 11 12 6 9 9 9 12 9 8 13 10 9 8 10 11 7 4 5 2 2 3 3 6 5 2 7 10 4 13 15 10 8 10 4 7 7 7 6 5 7 11 9 8
19 18 17 16 16 16 13 7 4 4 7 11 7 8 5 4 3 7 3 4 7 4 5 9 8 13 8 11 5 4 6 12 9 4 11 11 11 14 6 6 6 16 16 11 10 5 9 3 6 13 13 13 12 11 10 11 11 10 7 10 6 7 6 4 5 2 3 7 4 1 9 12 1 3 5 6 5 9 4 4 6 7 7 7 9 8 9 10
19 18 18 18 17 14 6 4 3 6 8 9 7 8 7 5 8 8 6 4 12 9 11 3 12 3 11 12 14 11 13 8 4 2 9 6 12 2 13 11 6 2 4 2 1 10 4 6 4 6 10 12 10 10 7 12 8 9 4 11 10 8 7 7 6 8 6 0 5 2 3 8 14 9 3 4 5 5 6 8 8 8 8 9 8 10 11 12
19 18 19 18 18 15 4 0 5 11 13 2 9 8 8 7 7 3 4 8 9 12 10 8 6 1 0 16 18 18 1 16 13 8 6 11 9 5 5 14 16 15 10 10 17 3 10 8 13 11 11 11 13 15 9 11 10 3 5 12 12 10 9 6 6 6 2 2 9 8 1 5 9 3 8 8 7 5 7 9 10 10 9 9 11 12 11 12
19 20 20 19 18 19 10 5 4 11 5 7 11 10 8 10 8 5 6 7 1 4 0 14 4 3 3 14 14 17 7 7 8 12 9 5 10 3 12 14 12 12 11 17 14 6 0 16 16 16 13 12 12 11 10 15 12 2 7 5 4 7 7 7 7 6 2 4 14 10 6 7 18 4 2 1 6 8 10 11 11 9 10 11 11 11 12 11
20 19 19 20 14 8 7 6 8 1 8 8 9 10 10 10 7 10 11 9 3 5 3 2 16 14 14 18 13 19 17 5 1 2 7 10 12 1 4 2 6 7 8 10 15 12 4 2 11 10 11 11 8 5 10 11 7 2 5 3 2 2 2 1 2 3 2 13 19 7 12 10 12 4 11 8 7 7 9 6 6 7 9 10 11 12 11 10
18 19 21 18 8 4 5 8 12 5 3 5 13 15 10 7 11 13 15 5 1 4 6 1 7 19 20 21 15 15 14 12 7 10 8 7 12 10 3 4 4 4 5 9 12 10 1 2 7 3 6 1 5 2 0 6 7 6 3 5 3 3 1 2 0 2 10 13 7 12 12 13 12 3 5 7 3 10 12 9 10 10 12 12 11 10 9 8
19 19 22 14 8 7 10 12 10 9 5 4 12 12 11 13 10 14 7 6 1 6 10 4 7 13 21 21 18 19 20 15 10 13 12 12 9 11 12 13 13 8 11 13 13 4 5 3 3 5 2 11 4 6 4 7 7 7 5 8 11 4 5 6 5 12 12 11 1 12 11 6 16 22 3 2 5 5 8 10 12 11 9 9 9 10 8 7
20 19 23 15 11 7 12 2 9 9 6 11 12 11 11 12 17 12 4 7 4 3 5 10 13 13 15 17 17 16 17 19 14 10 16 12 13 15 13 13 14 13 11 11 8 7 5 6 6 5 4 9 11 13 7 7 9 10 11 8 10 8 8 9 7 1 4 3 1 5 5 7 4 15 16 16 11 9 6 5 6 8 10 9 9 7 6 7
21 19 11 10 10 11 6 5 5 11 15 14 12 12 13 15 13 10 14 6 3 1 3 0 11 14 18 17 14 16 10 13 19 14 19 11 11 13 14 13 13 13 4 10 16 14 10 8 13 10 8 9 15 12 13 6 12 13 7 12 12 9 5 10 8 13 11 5 2 3 2 7 8 7 1 16 20 20 17 16 15 11 11 12 7 5 7 8
23 17 10 7 9 11 10 10 10 13 12 12 13 16 21 15 6 10 11 6 1 1 2 4 10 15 11 13 10 16 15 10 17 15 18 15 15 12 14 13 14 12 7 10 8 5 18 10 4 22 7 14 15 12 11 8 5 8 7 5 9 14 4 7 4 3 3 3 3 2 8 6 11 2 1 2 2 4 10 11 11 11 5 2 4 6 7 7
18 10 8 8 10 11 11 9 10 16 15 12 14 16 19 10 7 4 3 6 3 4 2 4 8 11 10 12 8 13 12 4 16 15 13 18 15 16 15 11 15 16 12 13 8 11 5 13 5 12 13 6 14 9 6 13 12 7 8 14 11 2 6 2 4 1 3 3 8 3 6 8 7 13 7 5 2 2 1 1 4 6 1 0 1 2 3 3
11 6 9 12 13 9 12 11 10 13 11 15 17 16 8 4 3 3 4 13 8 10 5 9 8 11 10 12 12 12 12 7 14 15 10 14 14 16 16 13 15 17 16 14 9 3 12 7 6 10 16 12 12 14 8 16 4 6 12 11 4 1 4 7 8 2 3 5 6 10 13 9 4 11 1 7 9 4 1 0 1 3 5 7 2 3 3 4
9 9 10 13 16 11 12 12 14 11 12 15 19 18 3 8 2 2 2 4 4 6 5 8 3 11 12 12 11 14 11 14 11 14 7 17 4 16 17 13 14 15 15 14 7 3 6 4 2 8 19 15 4 9 4 9 5 10 10 9 11 4 8 6 3 13 5 7 3 6 6 9 10 12 1 3 8 4 4 5 5 4 5 5 3 2 0 1
9 8 10 20 12 15 13 15 16 12 11 13 14 15 6 1 3 4 4 2 6 4 9 7 2 8 10 14 10 14 18 16 14 13 12 11 8 16 22 12 13 16 17 13 10 2 4 7 2 4 10 6 6 11 13 13 2 2 6 8 1 2 8 12 12 4 8 9 4 7 11 11 8 6 8 7 6 6 5 5 6 6 5 5 4 3 1 2
12 8 16 11 19 16 15 16 11 11 14 18 13 11 3 9 4 5 12 4 3 7 7 6 8 2 8 6 11 11 11 14 16 11 15 7 13 6 20 17 9 15 18 15 9 3 4 3 8 2 2 7 9 8 14 16 15 5 7 7 1 1 2 3 2 9 6 5 12 6 7 2 7 7 10 10 10 8 10 9 7 6 5 4 4 2 0 0
11 8 4 19 21 18 17 14 13 15 15 9 10 6 5 4 3 5 14 11 4 2 4 9 6 9 3 6 9 5 7 12 11 12 12 7 14 8 9 17 13 19 14 15 13 3 2 7 12 3 4 9 7 12 18 16 13 12 14 12 13 10 5 7 9 3 6 7 5 8 14 2 3 4 10 11 10 10 7 11 9 8 6 4 2 2 1 0
10 15 10 21 23 24 18 15 9 8 9 15 12 9 5 6 3 5 7 10 10 6 1 1 5 5 5 5 3 8 6 10 13 11 9 11 10 13 9 19 19 18 18 14 17 12 7 2 6 8 5 13 11 10 5 6 7 10 13 12 14 11 7 9 12 11 2 7 2 2 2 8 8 4 5 6 4 7 9 9 9 7 6 4 3 1 1 1
12 9 14 24 26 24 17 13 11 13 12 13 9 10 6 4 5 7 10 6 6 4 3 1 3 4 5 6 7 2 6 8 14 15 9 14 13 16 9 22 15 17 18 12 12 13 5 4 6 3 0 4 4 2 1 2 6 4 8 8 12 15 15 15 10 3 4 1 7 4 9 8 6 3 6 6 6 6 5 6 7 5 3 3 0 1 5 6
8 5 10 18 28 22 17 16 17 16 14 9 12 11 9 6 6 5 7 7 8 5 8 4 3 6 3 5 5 11 6 3 5 12 11 6 8 11 6 17 18 12 17 11 14 13 10 2 10 5 0 1 5 3 3 2 3 8 10 13 12 9 11 1 3 1 4 9 12 8 15 8 8 1 4 1 4 5 6 7 4 5 1 1 3 4 4 5
4 2 1 9 19 20 17 16 15 13 17 16 13 15 9 6 6 9 9 10 8 7 5 9 8 2 4 3 4 3 9 14 2 7 7 5 5 4 10 17 19 12 15 13 17 13 15 9 14 15 13 12 13 17 15 13 14 5 2 10 10 11 9 5 12 4 11 4 10 9 9 8 7 3 4 4 2 5 6 6 0 2 3 3 5 5 4 4
4 6 3 5 13 13 13 10 11 10 11 11 12 14 13 11 5 9 10 8 10 8 10 5 8 6 2 3 5 5 4 3 11 1 5 4 5 1 8 18 20 14 18 17 11 10 5 7 13 14 16 19 16 14 11 9 5 10 6 12 17 16 17 16 9 11 14 5 12 13 11 9 11 11 10 5 5 10 12 5 4 3 4 1 4 5 5 4
2 6 7 6 3 13 15 13 15 14 16 16 12 9 16 17 10 4 14 7 10 11 6 10 4 9 8 6 6 7 6 9 7 4 4 3 1 1 4 12 18 23 23 15 10 8 4 11 16 14 19 16 15 15 9 17 17 18 20 21 19 19 18 18 15 17 12 13 18 6 11 13 19 17 13 8 11 13 9 4 5 6 6 6 6 5 4 3
5 2 6 4 10 15 17 13 20 20 20 20 15 12 17 19 16 10 6 11 5 11 9 5 10 12 14 15 6 5 5 5 7 7 5 4 1 3 2 3 12 19 20 9 10 13 8 14 19 16 15 15 12 6 9 13 16 18 21 21 22 22 20 22 20 19 17 15 17 16 17 15 17 19 20 18 14 11 8 6 5 3 6 6 6 7 8 7
1 0 4 2 2 4 20 26 30 24 22 21 12 15 16 19 20 18 9 9 10 7 13 12 15 16 16 15 12 9 8 6 8 6 6 6 13 5 2 3 8 12 14 10 7 2 5 11 12 16 16 15 15 6 8 14 11 15 18 20 22 21 22 22 21 22 22 17 14 20 19 19 16 19 20 18 6 6 5 3 2 3 4 5 5 5 5 5
6 5 5 1 1 2 11 6 14 16 13 15 11 13 14 18 22 17 9 11 11 15 12 17 15 16 18 16 15 15 14 13 11 11 6 9 5 8 7 8 1 3 5 11 6 4 8 10 15 10 13 17 15 7 7 15 15 17 17 18 18 15 14 17 16 18 19 18 16 15 17 15 11 16 20 1 7 5 4 5 9 8 2 4 4 5 7 7
0 2 3 5 10 3 7 10 12 17 14 14 15 15 11 17 21 19 17 16 21 18 17 22 21 15 14 17 17 21 20 16 15 15 11 15 13 12 11 4 11 3 6 7 4 2 11 11 8 7 10 12 15 14 13 8 7 11 15 14 12 11 11 12 16 17 18 19 18 18 16 15 16 19 9 4 5 8 10 10 8 6 6 6 7 7 8 7
0 0 3 1 9 9 9 11 14 15 15 17 20 25 19 30 27 21 12 13 18 20 19 25 23 17 11 15 21 23 25 21 19 12 7 8 9 4 10 7 14 11 8 10 5 5 6 9 9 6 11 12 16 17 18 9 4 7 10 12 17 18 19 19 19 19 19 16 17 16 18 18 19 8 10 8 9 10 8 9 8 7 7 8 9 9 8 8
Wind_Direction
278 279 279 275 271 268 271 273 265 261 260 259 262 254 253 254 255 248 248 249 247 236 236 244 257 268 277 286 299 314 333 8 324 315 312 239 216 247 269 277 270 312 8 6 8 2 319 347 316 355 357 30 275 84 260 357 136 62 176 124 205 199 158 218 183 170 194 43 305 339 357 113 153 342 313 10 7 54 24 65 349 27 36 337 290 102 116 132
274 275 276 277 274 271 270 268 268 262 261 259 258 255 251 249 250 248 249 250 246 248 236 233 243 254 265 275 291 323 1 348 302 283 248 243 242 248 258 263 264 283 321 352 42 81 159 287 346 5 23 259 300 205 359 256 93 136 116 125 218 184 235 161 181 210 40 323 293 292 352 142 128 114 286 84 343 19 56 21 31 38 10 27 52 107 123 138
274 273 270 271 275 275 270 268 265 262 259 258 255 253 246 248 249 248 237 232 235 247 253 239 228 241 253 266 279 4 19 331 322 274 267 264 241 244 248 256 260 257 242 246 290 109 119 241 311 18 296 171 300 221 78 251 150 229 125 210 237 209 243 268 151 241 157 218 351 356 1 32 297 180 319 110 185 24 154 195 3 40 284 103 90 119 134 145
272 271 270 269 269 272 273 270 268 264 261 257 254 252 250 241 242 243 242 229 221 227 241 247 234 225 237 262 306 40 26 338 288 250 270 266 279 233 233 236 241 242 149 160 174 131 198 40 321 181 293 157 275 52 160 261 134 268 143 189 220 211 213 269 121 290 327 264 216 9 312 37 328 311 112 197 101 342 262 214 168 201 184 178 174 157 157 156
270 268 269 267 265 266 269 270 267 268 264 259 255 251 249 242 232 233 233 230 225 222 224 240 236 230 213 244 335 62 359 7 270 241 254 274 273 280 266 228 222 181 188 138 357 27 50 54 21 3 121 213 316 56 248 267 185 95 211 194 185 116 216 262 257 199 142 360 64 350 344 238 310 40 7 164 168 215 201 221 207 198 166 162 174 180 167 175
268 266 266 267 266 264 263 265 267 266 265 262 258 253 250 245 236 227 228 233 232 225 223 221 241 235 204 194 81 67 50 212 305 286 263 282 293 281 278 254 198 154 146 258 182 35 344 336 105 97 170 134 204 174 263 197 158 233 300 244 215 207 208 269 299 163 49 331 319 291 251 39 80 269 235 192 185 230 215 186 204 178 168 179 164 159 176 183
267 267 263 262 261 262 263 263 264 265 264 262 261 258 251 250 246 230 223 227 228 226 214 212 233 245 200 122 102 92 193 277 337 254 346 340 309 43 18 210 147 137 139 146 188 185 176 200 114 204 123 169 281 184 247 155 30 110 232 281 275 202 221 246 258 287 295 171 220 216 5 292 263 271 212 190 246 232 218 231 222 181 158 138 154 180 181 188
269 266 264 261 260 259 258 259 259 260 263 263 263 260 255 249 247 242 222 221 226 222 214 199 200 244 177 107 117 299 60 253 242 259 231 18 13 24 50 45 105 126 151 174 161 185 133 195 187 155 96 161 226 168 271 313 189 186 256 238 251 170 229 246 253 278 260 212 223 174 226 242 221 224 180 231 241 252 250 198 220 119 138 160 170 185 194 196
266 266 264 262 261 258 255 255 255 256 260 261 261 263 262 252 245 245 232 219 223 223 218 201 195 214 201 105 139 230 238 242 216 235 276 296 320 356 17 49 59 136 152 148 173 186 147 227 191 184 225 216 251 59 303 124 295 186 212 220 262 258 287 275 308 288 285 288 155 306 235 254 249 296 264 229 238 243 260 239 163 132 143 175 191 196 195 201
263 263 263 262 260 261 258 252 252 253 253 255 256 258 261 257 251 247 239 229 221 224 223 202 189 195 188 114 116 221 261 216 231 249 265 274 274 282 319 166 115 126 132 201 154 179 187 219 168 215 135 226 164 219 178 150 225 208 349 250 239 259 270 279 239 267 279 268 289 274 273 265 257 139 268 267 232 245 265 260 262 156 179 195 202 206 210 205
266 262 260 261 261 259 258 257 254 252 252 250 254 254 255 256 254 249 247 237 226 226 224 214 176 150 202 165 171 220 233 56 212 237 244 247 271 173 232 171 156 140 153 197 207 160 224 193 220 107 64 225 134 263 155 221 312 321 252 316 296 282 263 266 319 274 323 290 253 191 270 264 266 169 242 231 263 217 218 252 258 262 205 203 217 214 215 217
263 263 261 258 258 259 255 254 252 249 250 249 249 250 250 252 255 251 249 246 238 232 221 207 179 183 194 187 209 212 233 212 79 58 355 230 187 203 200 189 167 171 161 190 224 233 227 234 264 296 185 128 203 181 270 232 119 221 228 275 297 317 304 253 209 244 183 260 272 307 326 283 231 232 236 217 235 211 217 242 254 255 250 224 212 223 220 223
265 265 262 263 260 256 256 254 254 251 247 248 246 246 249 253 253 250 249 249 248 249 228 212 180 178 227 217 222 226 271 261 332 359 328 301 249 196 188 173 173 161 165 150 215 228 222 191 170 243 242 130 198 145 227 100 227 41 100 166 310 315 297 250 200 188 145 250 161 105 271 212 248 246 255 233 229 239 244 250 246 249 253 246 231 207 229 236
271 263 261 257 257 258 255 255 255 251 251 247 245 243 245 246 248 248 245 245 235 241 235 216 188 197 222 245 90 206 229 250 306 332 278 334 169 249 107 167 169 178 157 182 215 179 169 204 141 203 359 125 236 307 18 354 24 188 246 129 222 287 258 254 166 196 197 241 206 142 250 241 257 275 273 259 207 212 226 240 242 244 250 251 236 242 234 236
264 266 262 262 254 253 255 255 255 252 251 253 248 248 248 247 247 248 245 243 237 240 247 234 196 181 236 263 1 248 232 229 256 246 241 346 144 110 203 111 177 186 196 183 172 160 165 95 84 88 251 264 121 29 348 24 357 335 128 238 314 196 281 296 303 176 214 269 208 150 261 257 258 250 253 255 214 204 227 234 236 238 250 260 262 253 254 255
261 262 261 258 255 254 256 252 249 250 247 250 251 246 248 254 252 244 249 245 242 240 245 224 208 211 280 263 233 9 139 192 225 231 234 163 215 192 191 162 133 102 113 17 100 124 63 103 145 189 284 19 110 102 50 59 319 348 162 265 241 212 241 329 263 213 209 207 268 193 244 321 297 253 240 233 225 217 227 244 253 250 252 257 258 255 251 256
259 260 262 261 267 260 251 251 251 249 244 247 255 247 241 245 260 258 252 246 243 196 214 222 180 179 238 16 49 161 215 211 57 214 207 187 197 204 107 103 163 104 62 61 36 79 340 160 303 43 41 151 175 120 96 232 307 285 265 201 203 188 198 224 298 292 216 191 243 229 240 248 262 268 272 298 245 231 216 236 244 244 240 246 252 256 257 254
259 259 261 258 254 260 256 249 249 252 245 237 240 240 233 235 275 282 278 273 46 355 254 248 248 138 250 163 172 209 143 155 198 184 175 187 177 126 146 127 127 131 107 68 345 169 273 151 84 200 132 187 151 170 176 203 188 189 200 201 261 241 192 213 147 258 85 170 218 253 251 259 261 270 271 259 272 215 225 227 230 238 239 245 250 260 263 259
260 254 258 263 256 255 255 247 249 252 243 237 242 250 77 60 42 336 215 178 147 150 209 191 172 203 218 194 154 112 181 185 74 123 195 135 174 145 122 92 127 143 175 157 249 160 149 85 102 189 220 201 201 193 202 193 173 199 187 194 188 190 220 218 231 270 239 270 230 229 241 243 248 258 263 256 248 222 233 238 244 244 243 246 250 256 262 264
261 258 253 254 258 256 256 247 237 244 245 235 210 257 189 200 158 226 187 205 221 212 238 140 191 246 53 342 177 192 82 117 164 229 174 188 141 143 175 134 99 148 148 189 151 196 141 192 196 204 211 206 204 202 203 160 191 201 136 189 195 202 260 285 250 236 226 249 253 252 247 242 253 248 256 250 242 241 241 249 241 240 240 241 245 244 249 258
258 257 253 249 249 254 254 250 237 232 237 215 150 182 219 188 192 212 180 240 225 245 254 261 216 210 213 132 138 140 135 198 200 197 199 146 110 136 204 153 168 183 191 171 164 117 181 205 219 213 206 202 200 186 209 230 111 177 194 200 224 195 229 225 233 249 249 181 272 238 260 253 248 250 255 263 241 245 241 243 245 248 251 250 242 256 259 247
254 261 256 248 248 251 249 243 244 242 230 189 205 214 236 213 169 117 127 218 234 226 235 244 251 253 310 160 215 132 43 142 196 221 238 154 183 169 227 182 178 194 146 127 138 191 212 214 217 203 194 137 135 184 200 206 221 212 187 196 225 242 269 286 260 272 256 183 263 256 257 261 258 252 255 252 232 226 230 227 232 229 235 242 245 246 253 268
254 246 252 248 245 247 244 244 239 232 234 206 206 213 224 191 22 60 100 342 262 201 221 230 235 242 229 302 285 333 178 190 190 203 193 166 154 198 151 172 189 166 158 179 194 192 218 232 216 172 150 132 173 187 189 206 222 223 205 163 219 188 155 267 283 241 261 195 273 295 282 272 256 249 250 251 236 226 228 232 234 211 220 227 231 228 234 242
250 249 252 251 243 245 246 240 241 229 224 220 219 216 213 45 18 35 80 190 261 216 196 215 217 225 226 191 187 199 194 187 179 203 200 176 177 157 164 178 178 178 196 194 206 205 212 354 155 180 166 171 193 189 186 195 219 222 218 221 189 180 202 170 250 314 291 277 177 319 292 281 231 242 245 252 250 248 245 259 250 247 227 226 245 271 247 241
251 245 245 249 242 243 243 238 239 221 190 222 225 221 183 81 97 85 80 323 257 281 202 223 188 224 213 84 171 188 205 313 206 183 183 178 163 136 201 167 160 200 199 201 209 230 247 250 174 164 152 194 194 191 199 188 219 224 226 211 206 180 216 258 322 8 8 312 309 65 337 271 217 211 228 227 237 243 230 226 244 244 239 237 238 240 250 252
247 247 242 241 241 233 241 236 213 192 200 224 214 197 170 128 118 125 186 203 255 191 128 225 129 234 135 210 114 185 168 222 189 213 168 196 179 173 146 205 177 200 200 189 202 220 235 171 166 170 178 192 198 206 201 182 209 208 222 196 198 195 201 214 235 141 254 246 281 143 218 274 54 260 237 240 232 250 277 241 245 246 246 242 239 243 246 248
248 242 241 236 237 226 218 203 156 148 203 229 208 132 160 142 109 105 195 236 250 159 183 165 181 247 181 162 163 130 212 190 93 21 188 186 183 254 179 179 182 21 151 127 182 230 156 156 147 172 179 191 202 217 199 182 195 227 165 164 192 191 199 209 202 197 240 268 294 300 180 259 284 248 230 219 211 247 263 266 252 246 244 243 246 247 248 247
243 242 236 235 232 222 198 239 163 180 209 187 134 158 140 140 99 71 241 230 243 120 196 172 210 164 201 159 155 180 44 128 182 206 208 173 175 231 216 185 188 181 166 162 216 144 144 150 176 176 188 193 207 209 181 172 192 211 180 162 194 189 207 208 198 226 236 306 255 249 162 291 248 283 183 174 217 232 245 244 250 250 243 243 245 245 246 248
245 238 235 234 232 222 208 207 166 211 181 140 155 151 143 135 157 202 230 218 150 123 319 169 125 68 123 148 175 187 189 186 200 159 175 161 198 115 208 206 198 181 168 179 211 210 336 191 183 180 180 206 212 205 176 185 201 251 169 146 131 187 204 198 220 219 258 197 246 224 161 235 273 163 208 295 205 206 223 229 240 237 237 239 246 253 252 254
243 241 235 229 232 238 222 223 224 192 154 160 135 118 128 142 157 219 208 244 127 254 207 184 177 167 153 164 183 192 190 203 27 120 157 176 193 50 291 160 178 160 187 210 216 210 189 343 160 182 201 209 197 187 183 187 197 151 119 91 48 98 129 46 139 163 153 231 238 189 166 198 280 197 194 158 216 179 208 236 241 244 254 257 252 249 252 253
239 236 241 225 217 177 169 221 215 189 214 158 140 134 151 187 211 205 229 245 246 228 101 276 178 148 163 170 173 197 197 178 180 148 176 157 200 199 151 130 132 149 186 208 230 229 106 132 159 242 191 124 118 154 171 177 177 133 150 131 99 301 53 133 283 103 216 244 241 143 183 195 229 284 195 192 232 183 190 209 218 231 236 240 247 252 253 259
236 234 235 227 195 169 198 222 193 170 166 156 156 146 171 217 208 212 204 88 52 253 167 157 214 172 173 174 179 174 191 189 181 171 173 182 160 195 198 187 160 168 194 190 222 199 247 221 246 305 244 162 158 138 215 192 190 168 128 147 174 213 168 233 150 209 207 232 255 161 172 229 222 247 179 295 256 230 210 196 210 219 235 245 251 252 255 255
236 231 231 227 202 192 218 203 136 159 140 165 172 174 193 218 221 198 240 172 234 201 249 166 174 177 179 160 200 167 187 192 157 195 172 192 184 199 205 201 176 180 174 190 214 186 246 200 250 265 240 192 163 185 166 197 200 185 182 171 177 189 200 217 206 325 317 249 246 182 177 230 272 278 246 235 235 235 214 221 215 211 224 235 241 250 262 265
233 229 223 216 214 207 195 166 161 147 167 177 185 186 218 217 222 169 200 224 229 302 226 95 164 177 170 186 177 180 172 202 168 186 180 183 188 186 202 217 190 191 190 172 198 185 202 203 218 200 227 184 192 192 188 162 176 196 182 189 197 191 180 206 195 204 210 220 173 242 107 225 170 227 262 186 218 225 231 236 238 233 235 249 273 311 310 299
230 229 211 201 210 210 191 182 166 163 173 183 200 204 210 222 207 192 199 194 264 16 210 157 176 173 178 200 187 189 175 179 191 169 192 183 196 190 184 197 206 188 180 175 210 198 217 227 213 198 189 170 186 193 173 133 173 204 188 181 211 213 167 192 190 165 239 236 176 215 212 204 221 350 244 263 14 234 235 232 244 256 281 335 288 276 268 271
228 218 189 212 208 205 184 186 169 169 182 190 214 216 211 195 203 164 237 183 174 146 249 191 188 175 175 195 192 192 214 204 174 180 201 196 193 194 193 188 198 193 181 202 152 218 169 232 173 193 207 185 185 173 188 155 197 184 161 209 217 79 108 57 296 193 71 57 244 186 294 284 308 280 271 273 124 277 358 235 232 254 284 43 320 283 280 270
222 197 208 211 216 180 175 174 167 173 187 205 216 228 207 222 209 147 208 197 183 136 195 176 208 189 176 192 192 182 196 113 190 186 209 182 210 196 190 204 193 193 209 183 208 195 192 219 179 153 199 226 196 181 175 193 132 141 201 202 106 44 115 179 218 147 163 182 242 192 219 244 205 273 238 213 227 210 304 296 180 122 130 96 92 86 81 81
208 210 222 211 206 165 174 168 167 180 193 219 223 220 136 212 271 215 241 174 129 178 146 205 243 186 197 183 198 189 171 190 176 193 209 181 279 174 195 196 195 206 198 214 199 256 177 276 297 203 191 196 93 125 203 230 196 198 200 151 158 157 214 213 139 230 197 215 257 243 214 237 198 233 70 173 206 213 135 115 113 127 104 119 131 114 105 25
190 202 227 218 164 168 162 168 178 175 206 213 226 228 204 230 188 199 263 228 179 151 193 214 177 208 187 199 183 191 174 198 171 203 189 195 210 192 194 167 202 197 208 198 214 224 202 202 299 239 196 147 153 162 203 202 219 21 116 177 280 179 219 184 201 228 204 240 240 256 188 242 193 218 228 228 196 184 181 157 165 157 152 145 141 107 85 38
171 189 238 142 160 162 148 163 174 187 210 218 215 233 112 207 194 188 244 225 215 169 229 191 195 218 214 215 192 185 194 199 187 192 202 156 207 187 191 184 176 190 202 208 213 171 224 172 233 262 209 158 187 198 205 189 187 173 165 180 218 221 256 86 234 205 200 207 223 258 252 262 218 192 208 217 219 208 178 175 176 174 181 179 161 162 200 222
177 210 232 145 161 142 148 159 185 202 210 221 235 232 166 203 171 200 217 226 245 351 162 219 183 198 153 202 248 210 195 196 200 202 201 186 189 203 205 189 167 189 186 210 219 207 150 204 207 165 157 210 204 198 204 201 185 178 181 194 187 174 191 192 238 193 213 198 206 201 240 258 282 204 206 212 218 208 210 157 172 182 188 197 219 243 217 284
153 210 202 152 138 144 149 177 197 190 212 214 209 202 225 180 207 209 203 203 219 245 11 162 247 184 185 208 204 207 192 198 202 206 209 203 197 210 188 193 188 169 181 192 204 213 191 164 189 207 184 191 208 219 245 217 179 181 185 196 189 201 189 210 219 214 181 248 269 212 324 258 245 212 222 234 196 167 168 160 170 182 189 201 229 262 320 75
185 224 112 145 147 148 158 201 193 194 210 217 208 228 214 218 209 190 196 190 208 202 246 263 218 186 240 197 217 225 223 219 191 207 190 202 211 206 176 189 183 183 180 198 194 207 74 198 195 236 274 323 335 334 348 165 157 186 234 212 191 204 196 209 219 199 175 180 226 227 248 243 249 204 206 193 178 173 168 163 168 183 172 210 161 62 88 88
192 141 160 156 154 151 165 188 193 197 209 207 200 210 190 213 188 193 202 183 193 157 208 213 272 218 234 176 171 216 187 247 234 211 212 199 230 191 184 187 179 188 176 185 193 167 212 217 198 181 42 209 270 333 324 326 198 210 193 209 210 201 197 145 98 129 167 205 206 199 236 238 255 250 246 226 165 160 189 228 181 146 189 227 102 113 110 117
111 78 352 175 157 158 182 194 189 189 197 199 189 207 185 221 213 202 181 198 194 213 178 221 203 162 211 147 208 200 206 207 297 221 218 215 228 149 167 186 194 197 203 183 196 151 210 160 191 209 194 185 195 195 198 204 209 198 243 206 214 191 168 145 227 202 225 212 199 216 243 247 265 328 271 239 186 216 235 226 171 156 174 163 133 137 136 124
172 174 170 205 166 173 205 183 191 182 190 189 196 212 201 209 196 201 190 213 188 208 214 214 211 187 221 152 190 220 251 241 195 262 184 209 211 175 179 189 192 201 204 197 178 155 204 202 221 211 204 214 208 209 203 171 119 188 178 186 207 205 196 201 200 212 220 195 220 213 214 240 262 253 245 192 205 220 227 197 147 194 230 148 150 147 144 141
81 201 156 195 135 189 188 182 191 185 201 181 202 188 204 211 204 204 183 215 197 203 210 214 170 185 213 206 213 222 192 200 228 248 202 211 309 248 305 203 196 201 201 200 182 180 151 213 225 220 223 225 220 218 184 173 185 195 194 207 203 202 197 199 198 218 203 212 240 202 215 216 238 243 238 216 215 225 235 187 187 193 196 180 173 150 129 102
191 231 197 205 187 176 177 199 195 196 201 176 203 179 200 201 201 205 172 217 175 197 202 226 217 211 210 208 189 228 171 200 161 207 202 214 124 312 344 277 211 210 203 204 186 199 197 215 213 213 226 229 233 225 184 188 192 195 202 203 205 204 201 202 209 216 207 213 224 223 219 221 235 244 244 231 214 212 215 223 220 215 143 151 149 153 158 159
50 71 213 103 260 236 200 189 187 191 190 182 200 188 196 199 204 204 180 182 201 206 202 217 215 213 216 208 204 220 192 181 214 205 193 160 204 181 234 354 268 234 204 200 217 206 179 230 216 213 222 227 229 202 189 200 206 206 207 207 209 204 206 204 209 214 214 220 217 230 234 225 228 244 249 246 214 180 212 207 208 201 198 155 141 132 128 130
206 159 203 151 296 267 220 194 178 181 190 188 198 206 205 197 205 203 197 176 187 209 188 222 217 209 214 214 211 221 216 209 202 206 190 176 200 194 212 199 169 219 188 220 184 219 196 219 213 202 218 230 227 208 205 212 200 211 210 210 210 210 206 209 212 219 225 232 231 237 246 249 237 241 248 325 127 142 125 205 230 244 171 158 151 156 153 157
165 183 156 165 209 193 172 176 179 184 190 185 201 205 206 207 214 199 200 189 192 194 185 206 214 211 211 211 212 224 225 214 219 215 191 184 203 193 186 222 179 187 171 200 183 214 206 228 206 185 214 228 225 215 220 227 244 218 207 209 203 189 201 206 213 211 211 215 221 230 239 246 248 237 238 147 142 163 192 203 212 219 201 176 174 173 168 165
140 240 123 139 215 170 178 179 188 176 198 199 199 199 194 204 205 186 203 212 210 205 193 199 202 200 210 204 215 220 222 215 217 214 195 196 220 200 190 194 174 177 173 209 225 205 199 215 200 152 207 226 226 210 217 198 219 256 229 204 199 204 203 204 213 212 215 204 214 215 230 231 235 111 190 201 181 209 207 207 203 217 209 189 192 185 172 172